When you browse on this site, cookies collect data to enhance your experience and personalize the content and advertising you see.
Visit our Privacy Policy to learn more. By continuing to use the site, you agree to this use of cookies and data.

Météo par heure à Tin'ky

Ce jour, 29 Septembre, Mardi

Heure Température Précipitation Vent Pression Humidité
00:00 +16°C° 0 mm 3 m/s 755 mmHg 60%
01:00 +16°C° 0 mm 3 m/s 755 mmHg 62%
02:00 +16°C° 0 mm 2 m/s 755 mmHg 64%
03:00 +16°C° 0 mm 3 m/s 754 mmHg 66%
04:00 +16°C° 0 mm 3 m/s 754 mmHg 69%
05:00 +14°C° 0 mm 3 m/s 754 mmHg 71%
06:00 +15°C° 0 mm 4 m/s 753 mmHg 67%
07:00 +17°C° 0 mm 4 m/s 753 mmHg 64%
08:00 +19°C° 0 mm 5 m/s 753 mmHg 60%
09:00 +20°C° 0 mm 5 m/s 753 mmHg 54%
10:00 +22°C° 0 mm 5 m/s 752 mmHg 48%
11:00 +23°C° 0 mm 5 m/s 752 mmHg 42%
12:00 +23°C° 0 mm 5 m/s 752 mmHg 43%
13:00 +23°C° 0 mm 5 m/s 751 mmHg 44%
14:00 +23°C° 0 mm 5 m/s 751 mmHg 45%
15:00 +23°C° 0 mm 5 m/s 750 mmHg 47%
16:00 +22°C° 0 mm 6 m/s 750 mmHg 49%
17:00 +22°C° 0 mm 6 m/s 749 mmHg 51%
18:00 +21°C° 0.1 mm 7 m/s 749 mmHg 55%
19:00 +20°C° 0.1 mm 7 m/s 749 mmHg 60%
20:00 +18°C° 0.1 mm 7 m/s 748 mmHg 64%
21:00 +18°C° 0.1 mm 7 m/s 748 mmHg 60%
22:00 +18°C° 0.1 mm 8 m/s 747 mmHg 56%
23:00 +18°C° 0.1 mm 8 m/s 747 mmHg 53%

Demain, 30 Septembre, Mercredi

Heure Température Précipitation Vent Pression Humidité
00:00 +18°C° 0.2 mm 8 m/s 746 mmHg 52%
01:00 +18°C° 0.2 mm 7 m/s 746 mmHg 52%
02:00 +18°C° 0.2 mm 7 m/s 746 mmHg 52%
03:00 +17°C° 2.7 mm 8 m/s 745 mmHg 62%
04:00 +16°C° 2.7 mm 8 m/s 745 mmHg 73%
05:00 +15°C° 2.7 mm 9 m/s 745 mmHg 83%
06:00 +15°C° 2.3 mm 9 m/s 745 mmHg 85%
07:00 +13°C° 2.3 mm 9 m/s 745 mmHg 87%
08:00 +13°C° 2.3 mm 10 m/s 745 mmHg 89%
09:00 +13°C° 1.1 mm 10 m/s 746 mmHg 89%
10:00 +13°C° 1.1 mm 10 m/s 746 mmHg 88%
11:00 +13°C° 1.1 mm 9 m/s 746 mmHg 88%
12:00 +13°C° 0.1 mm 9 m/s 746 mmHg 86%
13:00 +13°C° 0.1 mm 8 m/s 746 mmHg 84%
14:00 +13°C° 0.1 mm 8 m/s 746 mmHg 82%
15:00 +13°C° 0 mm 8 m/s 746 mmHg 83%
16:00 +13°C° 0 mm 8 m/s 747 mmHg 84%
17:00 +14°C° 0 mm 7 m/s 747 mmHg 85%
18:00 +14°C° 0.1 mm 7 m/s 747 mmHg 86%
19:00 +14°C° 0.1 mm 7 m/s 747 mmHg 87%
20:00 +14°C° 0.1 mm 7 m/s 747 mmHg 88%
21:00 +14°C° 0.4 mm 7 m/s 747 mmHg 89%
22:00 +14°C° 0.4 mm 6 m/s 747 mmHg 89%
23:00 +14°C° 0.4 mm 6 m/s 747 mmHg 90%

Après-demain, 1 Octobre, Jeudi

Heure Température Précipitation Vent Pression Humidité
00:00 +13°C° 0 mm 5 m/s 747 mmHg 91%
01:00 +13°C° 0 mm 5 m/s 747 mmHg 91%
02:00 +13°C° 0 mm 4 m/s 747 mmHg 92%
03:00 +13°C° 0 mm 4 m/s 747 mmHg 93%
04:00 +12°C° 0 mm 4 m/s 747 mmHg 94%
05:00 +12°C° 0 mm 4 m/s 748 mmHg 96%
06:00 +13°C° 0 mm 5 m/s 748 mmHg 92%
07:00 +14°C° 0 mm 5 m/s 748 mmHg 89%
08:00 +15°C° 0 mm 6 m/s 748 mmHg 86%
09:00 +16°C° 0 mm 6 m/s 748 mmHg 80%
10:00 +17°C° 0 mm 6 m/s 749 mmHg 74%
11:00 +18°C° 0 mm 7 m/s 749 mmHg 69%
12:00 +20°C° 0.2 mm 7 m/s 749 mmHg 65%
13:00 +20°C° 0.2 mm 7 m/s 749 mmHg 62%
14:00 +21°C° 0.2 mm 7 m/s 748 mmHg 59%
15:00 +20°C° 0.4 mm 7 m/s 748 mmHg 62%
16:00 +19°C° 0.4 mm 6 m/s 748 mmHg 66%
17:00 +17°C° 0.4 mm 5 m/s 748 mmHg 69%
18:00 +17°C° 0.1 mm 5 m/s 749 mmHg 72%
19:00 +16°C° 0.1 mm 5 m/s 749 mmHg 75%
20:00 +15°C° 0.1 mm 5 m/s 749 mmHg 79%
21:00 +15°C° 0 mm 5 m/s 750 mmHg 81%
22:00 +15°C° 0 mm 5 m/s 750 mmHg 83%
23:00 +14°C° 0 mm 5 m/s 750 mmHg 86%

2 Octobre, Vendredi

Heure Température Précipitation Vent Pression Humidité
00:00 +14°C° 0.1 mm 5 m/s 750 mmHg 88%
01:00 +14°C° 0.1 mm 5 m/s 750 mmHg 90%
02:00 +13°C° 0.1 mm 4 m/s 750 mmHg 92%
03:00 +13°C° 0.1 mm 4 m/s 750 mmHg 92%
04:00 +13°C° 0.1 mm 4 m/s 750 mmHg 91%
05:00 +13°C° 0.1 mm 4 m/s 751 mmHg 91%
06:00 +13°C° 0.1 mm 4 m/s 751 mmHg 87%
07:00 +14°C° 0.1 mm 4 m/s 751 mmHg 82%
08:00 +15°C° 0.1 mm 5 m/s 751 mmHg 78%
09:00 +16°C° 0.1 mm 5 m/s 751 mmHg 73%
10:00 +17°C° 0.1 mm 5 m/s 752 mmHg 67%
11:00 +19°C° 0.1 mm 5 m/s 752 mmHg 62%
12:00 +19°C° 0.1 mm 5 m/s 752 mmHg 61%
13:00 +20°C° 0.1 mm 4 m/s 752 mmHg 60%
14:00 +20°C° 0.1 mm 4 m/s 752 mmHg 59%
15:00 +19°C° 0.1 mm 4 m/s 752 mmHg 61%
16:00 +19°C° 0.1 mm 4 m/s 752 mmHg 63%
17:00 +17°C° 0.1 mm 5 m/s 752 mmHg 65%
18:00 +18°C° 0.1 mm 4 m/s 752 mmHg 67%
19:00 +17°C° 0.1 mm 4 m/s 753 mmHg 69%
20:00 +17°C° 0.1 mm 4 m/s 753 mmHg 71%
21:00 +17°C° 0.1 mm 4 m/s 753 mmHg 74%
22:00 +16°C° 0.1 mm 3 m/s 753 mmHg 77%
23:00 +16°C° 0.1 mm 2 m/s 753 mmHg 80%

3 Octobre, Samedi

Heure Température Précipitation Vent Pression Humidité
00:00 +16°C° 0 mm 2 m/s 753 mmHg 81%
01:00 +16°C° 0 mm 2 m/s 753 mmHg 81%
02:00 +16°C° 0 mm 2 m/s 753 mmHg 81%
03:00 +14°C° 0 mm 3 m/s 753 mmHg 82%
04:00 +14°C° 0 mm 3 m/s 753 mmHg 84%
05:00 +14°C° 0 mm 3 m/s 754 mmHg 85%
06:00 +14°C° 0 mm 3 m/s 754 mmHg 83%
07:00 +16°C° 0 mm 3 m/s 754 mmHg 81%
08:00 +17°C° 0 mm 3 m/s 754 mmHg 79%
09:00 +17°C° 0 mm 3 m/s 754 mmHg 76%
10:00 +18°C° 0 mm 3 m/s 754 mmHg 73%
11:00 +19°C° 0 mm 3 m/s 754 mmHg 70%
12:00 +20°C° 0.1 mm 3 m/s 754 mmHg 65%
13:00 +21°C° 0.1 mm 4 m/s 754 mmHg 61%
14:00 +22°C° 0.1 mm 4 m/s 754 mmHg 57%
15:00 +21°C° 0.2 mm 4 m/s 753 mmHg 60%
16:00 +20°C° 0.2 mm 4 m/s 753 mmHg 64%
17:00 +20°C° 0.2 mm 3 m/s 753 mmHg 67%
18:00 +19°C° 0.1 mm 4 m/s 753 mmHg 69%
19:00 +19°C° 0.1 mm 4 m/s 754 mmHg 70%
20:00 +19°C° 0.1 mm 5 m/s 754 mmHg 71%
21:00 +17°C° 0.1 mm 5 m/s 754 mmHg 72%
22:00 +17°C° 0.1 mm 5 m/s 754 mmHg 73%
23:00 +17°C° 0.1 mm 5 m/s 754 mmHg 74%

4 Octobre, Dimanche

Heure Température Précipitation Vent Pression Humidité
00:00 +17°C° 0.1 mm 5 m/s 754 mmHg 75%
01:00 +17°C° 0.1 mm 5 m/s 754 mmHg 76%
02:00 +16°C° 0.1 mm 5 m/s 754 mmHg 77%
03:00 +16°C° 0 mm 5 m/s 754 mmHg 79%
04:00 +16°C° 0 mm 5 m/s 753 mmHg 81%
05:00 +15°C° 0 mm 5 m/s 753 mmHg 83%
06:00 +16°C° 0 mm 6 m/s 753 mmHg 80%
07:00 +17°C° 0 mm 6 m/s 753 mmHg 77%
08:00 +17°C° 0 mm 6 m/s 753 mmHg 74%
09:00 +19°C° 0 mm 6 m/s 753 mmHg 72%
10:00 +19°C° 0 mm 6 m/s 753 mmHg 70%
11:00 +20°C° 0 mm 6 m/s 753 mmHg 67%
12:00 +21°C° 0 mm 5 m/s 753 mmHg 64%
13:00 +22°C° 0 mm 4 m/s 753 mmHg 61%
14:00 +23°C° 0 mm 4 m/s 752 mmHg 58%
15:00 +22°C° 0 mm 4 m/s 752 mmHg 59%
16:00 +22°C° 0 mm 4 m/s 752 mmHg 60%
17:00 +22°C° 0 mm 4 m/s 752 mmHg 61%
18:00 +21°C° 0 mm 4 m/s 752 mmHg 63%
19:00 +21°C° 0 mm 5 m/s 752 mmHg 64%
20:00 +20°C° 0 mm 5 m/s 752 mmHg 66%
21:00 +20°C° 0.1 mm 5 m/s 752 mmHg 71%
22:00 +19°C° 0.1 mm 5 m/s 752 mmHg 75%
23:00 +19°C° 0.1 mm 6 m/s 752 mmHg 79%
Voir plus